Location: Boca de Tacagua
(10.5333°N, 66.9833°W)
Time: 03:12:38
(UTC+00:00)

Cosmos 1536 - Pass Details

Date: 09 July 2022
Orbit: 536 x 556 km, 82.5° (Epoch: 14 August)

Event Time Altitude Azimuth Distance (km) Brightness Sun altitude
Exits shadow 08:15:53 21° 345° (NNW) 1,283 4.8 -26.3°
Drops below altitude 10° 08:17:19 10° 352° (N) 1,831 5.7 -26.0°
Sets 08:19:31 0° 357° (N) 2,726 6.7 -25.6°
